CDT,Max TemperatureF,Mean TemperatureF,Min TemperatureF,Max Dew PointF,MeanDew PointF,Min DewpointF,Max Humidity, Mean Humidity, Min Humidity, Max Sea Level PressureIn, Mean Sea Level PressureIn, Min Sea Level PressureIn, Max VisibilityMiles, Mean VisibilityMiles, Min VisibilityMiles, Max Wind SpeedMPH, Mean Wind SpeedMPH, Max Gust SpeedMPH,PrecipitationIn, CloudCover, Events, WindDirDegrees
2013-4-1,30,20,10,10,7,3,71,56,37,30.23,30.19,30.09,10,10,10,21,14,29,0.00,1,,301
2013-4-2,33,24,15,11,7,2,74,53,34,30.39,30.30,30.22,10,10,10,15,10,20,0.00,0,,318
2013-4-3,43,23,3,28,11,-1,80,53,31,30.41,30.24,29.97,10,10,10,17,4,28,0.00,2,,183
2013-4-4,39,34,25,30,23,13,82,63,41,30.22,30.04,29.90,10,10,8,20,9,26,0.00,3,,315
2013-4-5,37,26,14,23,14,9,81,57,33,30.30,30.18,29.99,10,9,1,9,5,,0.00,3,Snow,124
2013-4-6,35,32,28,30,28,23,89,84,75,30.01,29.73,29.61,10,5,0,15,8,18,0.31,8,Fog-Rain-Snow,107
2013-4-7,37,35,33,30,28,26,89,77,65,29.92,29.86,29.69,10,9,1,13,7,,0.03,8,Snow,95
2013-4-8,41,37,33,32,30,28,92,82,67,30.12,29.89,29.79,10,7,1,12,4,,0.20,8,Rain-Snow,28
2013-4-9,39,29,21,27,17,13,72,57,43,30.27,30.22,30.11,10,10,10,17,11,21,0.00,2,,355
2013-4-10,44,35,26,18,13,11,55,42,26,30.30,30.21,30.12,10,10,10,14,7,18,0.00,1,,59
2013-4-11,32,29,26,22,18,12,81,63,44,30.12,29.97,29.90,10,7,0,20,14,30,0.03,7,Snow,75
2013-4-12,32,27,24,23,20,18,86,75,61,29.89,29.81,29.77,9,3,1,15,9,22,0.06,8,Snow,39
2013-4-13,36,25,16,19,17,13,88,73,50,30.01,29.90,29.79,10,10,3,12,5,,0.00,6,Snow,347
2013-4-14,41,24,9,27,20,4,86,72,41,30.03,29.84,29.65,10,6,0,24,9,34,0.29,4,Fog-Snow,82
2013-4-15,39,34,30,33,29,27,87,82,73,29.86,29.58,29.46,10,5,1,17,10,29,0.07,8,Rain-Snow,156
2013-4-16,39,34,30,29,26,21,87,75,50,30.40,30.08,29.84,10,7,0,14,7,17,0.00,8,Fog-Snow,313
2013-4-17,36,32,30,27,26,25,86,74,67,30.41,30.26,30.07,10,8,2,13,6,,0.02,8,Snow,93
2013-4-18,33,30,28,28,26,23,88,82,72,30.08,29.79,29.55,10,3,0,21,10,33,0.12,8,Fog-Snow,2
2013-4-19,33,24,12,26,18,1,86,69,35,30.01,29.67,29.52,10,3,1,31,20,40,0.02,7,Snow,345
2013-4-20,37,19,1,10,4,-4,83,50,26,30.34,30.24,30.04,10,10,10,12,2,,0.00,0,,126
2013-4-21,37,28,19,31,26,9,89,78,54,30.34,30.12,30.00,10,6,0,16,7,23,0.15,7,Fog-Rain-Snow,158
2013-4-22,37,34,30,30,24,20,86,67,50,30.30,30.21,30.07,10,10,10,13,7,,0.00,6,,321
2013-4-23,41,34,26,21,17,11,72,51,29,30.22,30.11,30.04,10,10,10,14,9,20,0.00,3,,318
2013-4-24,42,30,18,29,21,12,88,68,35,30.04,29.93,29.85,10,9,2,13,2,,0.00,4,Snow,291
2013-4-25,46,34,21,27,23,17,88,68,33,30.17,30.06,29.94,10,10,10,12,5,16,0.00,5,,265
2013-4-26,63,48,32,33,29,21,79,54,28,30.14,30.06,29.99,10,10,10,8,4,,0.00,1,Rain,218
2013-4-27,71,50,28,32,29,24,85,48,22,30.14,30.01,29.84,10,10,10,13,3,20,0.00,0,,178
2013-4-28,66,52,39,44,39,29,86,59,43,29.83,29.74,29.65,10,10,10,12,4,22,0.00,5,,196
2013-4-29,66,49,32,33,27,19,76,44,17,29.86,29.75,29.64,10,10,10,13,7,20,0.00,0,,119
2013-4-30,66,55,44,52,40,25,86,61,23,29.91,29.55,29.35,10,9,7,17,9,32,0.07,4,Rain,213